Regional Weather Roundup
Issued by NWS

Home | Current Version | Previous Version | Graphics & Text | Print | Product List | Glossary On
Versions: 1 2 3 4 5 6 7 8 9 10 11 12 13 14 15 16 17 18 19 20 21 22 23 24 25 26 27 28 29 30 31 32 33 34 35 36 37 38 39 40 41 42 43 44 45 46 47 48 49 50
000
ASUS43 KMKX 241711
RWRWI

WISCONSIN REGIONAL WEATHER ROUNDUP
NATIONAL WEATHER SERVICE MILWAUKEE/SULLIVAN WI
1200 PM CDT TUE MAY 24 2016

NOTE: "FAIR" INDICATES FEW OR NO CLOUDS BELOW 12,000 FEET WITH NO
SIGNIFICANT WEATHER AND/OR OBSTRUCTIONS TO VISIBILITY.

WIZ001-002-006>008-014>016-023>028-241800-
NORTHWEST WISCONSIN

CITY           SKY/WX    TMP DP  RH WIND       PRES   REMARKS
SUPERIOR ARPT  PTSUNNY   66  60  80 NW5       29.87R
ASHLAND        CLOUDY    66  63  90 E7        29.88S
HAYWARD        CLOUDY    70  60  70 W6        29.89R
SIREN          CLOUDY    71  61  72 SW7       29.89R
CUMBERLAND     CLOUDY    72  59  64 SW7       29.90R
RICE LAKE      CLOUDY    73  59  61 W8        29.91R
CHETEK         CLOUDY    73  64  73 CALM      29.90R
LADYSMITH      CLOUDY    71  63  77 SW7       29.92R
EAU CLAIRE     PTSUNNY   73  62  68 SW7       29.89R
MENOMONIE      MOSUNNY   75  74  95 SW7       29.89S
NEW RICHMOND   MOSUNNY   75  58  55 W9        29.89R
OSCEOLA        PTSUNNY   74  63  68 W8        29.92R
$$

WIZ003>005-009-010-017-018-241800-
NORTH CENTRAL WISCONSIN

CITY           SKY/WX    TMP DP  RH WIND       PRES   REMARKS
MANITOWISH WTR CLOUDY    70  63  78 SW5       29.90S
ARBOR VITAE    CLOUDY    71  64  78 S9        29.91S
WOODRUFF       CLOUDY    71  64  78 S9        29.91S
RHINELANDER    CLOUDY    67  62  84 S6        29.92S
EAGLE RIVER    RAIN      66  62  86 W3        29.91F
LAND O LAKES   CLOUDY    69  60  73 S8        29.91S
PHILLIPS       CLOUDY    69  63  80 SW7       29.90R
TOMAHAWK       CLOUDY    66  61  83 CALM      29.92S
MEDFORD        CLOUDY    69  62  80 SW7       29.91S
MERRILL        CLOUDY    68  61  77 S5        29.92S
$$

WIZ029-030-035-036-043>047-241800-
CENTRAL WISCONSIN

CITY           SKY/WX    TMP DP  RH WIND       PRES   REMARKS
WAUSAU         LGT RAIN  72  58  61 S6        29.90R
MOSINEE        PTSUNNY   68  61  77 S7        29.92S
MARSHFIELD     CLOUDY    74  60  61 SW8       29.91R
STEVENS POINT  CLOUDY    70  57  62 SW6       29.93R
WAUPACA        CLOUDY    78  58  50 S6        29.92R
WAUTOMA        CLOUDY    75  59  57 S8        29.92S
WISC RAPIDS    PTSUNNY   75  57  53 SW8       29.93S
CAMP DOUGLAS   CLOUDY    73  64  73 SW7       29.92R
$$

WIZ011>013-019>022-031-037>040-048>050-241800-
NORTHEAST WISCONSIN

CITY           SKY/WX    TMP DP  RH WIND       PRES   REMARKS
ANTIGO         CLOUDY    69  60  73 S6        29.92F
SHAWANO        CLOUDY    77  54  44 SW5       29.91S
OCONTO         CLOUDY    76  55  48 S6        29.89F
STURGEON BAY   NOT AVBL
GREEN BAY      MOSUNNY   82  55  39 S12       29.90F HX  81
MANITOWOC      MOSUNNY   76  52  43 S14       29.92F
APPLETON       PTSUNNY   79  55  44 S12       29.90F
CLINTONVILLE   CLOUDY    75  52  43 S5        29.90S
OSHKOSH        CLOUDY    80  59  48 SW8       29.91S HX  81
$$

WIZ032>034-041-042-053>061-241800-
SOUTHWEST WISCONSIN

CITY           SKY/WX    TMP DP  RH WIND       PRES   REMARKS
LA CROSSE      CLOUDY    76  60  57 S6        29.92R
SPARTA         CLOUDY    73  60  63 W7        29.93S
VIROQUA        CLOUDY    73  58  58 W8        29.95S
BOSCOBEL       PTSUNNY   78  59  51 SW8       29.94R
PRAIRIE DU CHI CLOUDY    76  59  55 S3        29.93S
PLATTEVILLE    CLOUDY    75  61  60 SW15      29.96R
$$

WIZ056-057-062-063-064-067-068-241800-
SOUTH CENTRAL WISCONSIN

CITY           SKY/WX    TMP DP  RH WIND       PRES   REMARKS
REEDSBURG      CLOUDY    76  60  58 SW13      29.93R
BARABOO/DELLS  CLOUDY    73  59  61 SW9       29.94R
LONE ROCK      CLOUDY    78  59  51 VRB5      29.94R
MINERAL POINT  MOSUNNY   75  59  57 S7        29.96R
MADISON        CLOUDY    74  58  57 SW6       29.95R
MIDDLETON      CLOUDY    74  59  59 SW7       29.97R
WATERTOWN      MOSUNNY   80  61  51 SW13      29.94R HX  81
MONROE         CLOUDY    77  59  53 S12       29.96S
JANESVILLE     PTSUNNY   82  57  42 SW9G17    29.94F HX  82
$$

WIZ051-052-058>065-066-070>072-241800-
SOUTHEAST WISCONSIN

CITY           SKY/WX    TMP DP  RH WIND       PRES   REMARKS
MILWAUKEE      MOSUNNY   81  56  42 S12       29.95F HX  81
WAUKESHA       MOSUNNY   79  55  44 S16       29.96F
MILWAUKEE/TIMM SUNNY     81  52  36 S14G20    29.95F HX  80
RACINE         SUNNY     82  55  39 SW13G22   29.97F HX  81
BURLINGTON     SUNNY     81  55  39 SW13G21   29.96S HX  81
KENOSHA        SUNNY     82  58  43 S13       29.97S HX  82
FOND DU LAC    CLOUDY    80  58  46 SW13      29.91F HX  80
SHEBOYGAN      SUNNY     81  57  43 SW8       29.92F HX  81
WEST BEND      SUNNY     79  55  44 S10       29.94S
JUNEAU         MOSUNNY   77  58  52 S15       29.94S
$$

LSZ147-162-241800-
LAKE SUPERIOR

STATION/POSITION TIME  TEMP    WIND        PRES    WAVE
                       AIR SEA DIR/SP/G            HT/PER
                 (UTC) (F)     (DEG/KT/KT) (MB)    (FT/S)
W MID LAKE BUOY  1650   46 38  110/ 12/ 14 1011.1F   0
DEVILS ISLAND    1700   57     120/  8/ 10 1011.2F
PORT WING        1520           90/  4/ 11 1010.8F
SAXON HARBOR     1600   57      30/  5/ 10 1011.5
$$

LMZ867-665-643>646-241800-
LAKE MICHIGAN

STATION/POSITION TIME  TEMP    WIND        PRES    WAVE
                       AIR SEA DIR/SP/G            HT/PER
                 (UTC) (F)     (DEG/KT/KT) (MB)    (FT/S)
CHAMBERS ISLAND  1600   70     180/  5/  7 1013.2R
N MID LAKE BUOY  1650   47 44  190/  8/ 10 1013.5S   2/ 4
NORTHPORT PIER   1600   58     130/  3/  7 1013.5R
SISTER BAY       1604   66      10/  4/  5   N/A
ALGOMA LAKESHORE 1617          160/  3/  5   N/A
KEWAUNEE LAKESHO 1600   55     170/  9/ 12 1012.8R
SHEBOYGAN LAKESH 1700   58     170/ 17/ 18 1013.8F
PORT WASHINGTON  1640   64     180/  8/ 11 1014.6F
S MID LAKE BUOY  1650   53 48  160/ 10/ 12 1015.5F   1/ 3
KENOSHA   LAKESH 1700   61     160/ 11/ 14 1014.6F
$$

TC  - TEMPERATURE IN CELSIUS
VSB - VISIBILITY IN STATUTE MILES
WCI - WIND CHILL INDEX
HX  - HEAT INDEX




USA.gov is the U.S. government's official web portal to all federal, state and local government web resources and services.